Location: Oshawa
(43.9000°N, 78.8670°W)
Time: 16:25:26
(UTC-04:00)

Cosmos 1500 - Visible Passes

Search period start: 25 April 2017 00:00
Search period end: 05 May 2017 00:00
Orbit: 504 x 523 km, 82.5° (Epoch: 24 April)

Date Brightness Start Highest point End Pass type
(mag) Time Alt. Az. Time Alt. Az. Time Alt. Az.
25 Apr 5.9 00:46:19 10° N 00:47:26 18° N 00:47:26 18° N visible
26 Apr 5.8 00:30:43 10° N 00:32:00 20° N 00:32:00 20° N visible
27 Apr 5.6 00:15:09 10° N 00:16:34 20° NNE 00:16:34 20° NNE visible
27 Apr 5.5 23:59:37 10° N 00:01:08 21° NNE 00:01:08 21° NNE visible
28 Apr 5.4 23:44:06 10° NNE 23:45:42 20° NNE 23:45:42 20° NNE visible
29 Apr 6.2 01:20:19 10° NW 01:20:40 11° NW 01:20:40 11° NW visible
29 Apr 5.4 23:28:37 10° NNE 23:30:16 19° NE 23:30:16 19° NE visible
30 Apr 6.0 01:04:25 10° NW 01:05:15 14° NW 01:05:15 14° NW visible
30 Apr 5.4 23:13:11 10° NNE 23:14:51 18° NE 23:14:51 18° NE visible
01 May 5.8 00:48:34 10° NNW 00:49:50 17° NW 00:49:50 17° NW visible
01 May 5.4 22:57:49 10° NNE 22:59:27 16° NE 22:59:27 16° NE visible
02 May 5.5 00:32:46 10° NNW 00:34:25 21° NW 00:34:25 21° NW visible
02 May 5.5 22:42:32 10° NE 22:44:02 14° ENE 22:44:02 14° ENE visible
03 May 5.2 00:17:00 10° NNW 00:19:01 26° NW 00:19:01 26° NW visible
03 May 5.6 22:27:27 10° NE 22:28:38 12° ENE 22:28:38 12° ENE visible
04 May 4.9 00:01:16 10° NNW 00:03:37 33° NW 00:03:37 33° NW visible
04 May 4.4 23:45:33 10° NNW 23:48:13 41° NNW 23:48:13 41° NNW visible
